Springfield, IL

8:00 AM CST on January 16, 2017 (GMT -0600)
Capital

Weather History for KSPI - January, 2015

Change the Weather History Date:

Wednesday, January 7, 2015

  Actual Average Record
Temperature  
Mean Temperature 7 °F 27 °F  
Max Temperature 18 °F 35 °F 70 °F (1907)
Min Temperature -4 °F 19 °F -19 °F (1912)
Degree Days  
Heating Degree Days 58 38  
Month to date heating degree days 301 266  
Since 1 July heating degree days 2473 2406  
Cooling Degree Days 0 0  
Month to date cooling degree days 0 0  
Year to date cooling degree days 0 0  
Moisture  
Dew Point -4 °F    
Average Humidity 62    
Maximum Humidity 69    
Minimum Humidity 54    
Precipitation  
Precipitation T in 0.06 in 2.41 in (1937)
Month to date precipitation 0.62 0.47  
Year to date precipitation 0.62 0.47  
Snow  
Snow T in 0.20 in 5.40 in (1940)
Month to date snowfall 1.2 1.5  
Since 1 July snowfall 5.4 7.7  
Snow Depth 1.00 in    
Sea Level Pressure  
Sea Level Pressure 30.74 in    
Wind  
Wind Speed 16 mph (NW)    
Max Wind Speed 29 mph    
Max Gust Speed 37 mph    
Visibility 9 miles    
Events Snow    
T = Trace of Precipitation, MM = Missing Value Source: NWS Daily Summary

Daily Weather History Graph

Daily Weather History Graph

Search for Another Location

Airport or City:

Trip Planner

Search our weather history database for the weather conditions in past years. The results will help you decide how hot, cold, wet, or windy it might be!

Date:

Astronomy

Jan. 07, 2015 Rise Set
Actual Time 7:20 AM CST 4:49 PM CST
Civil Twilight 6:50 AM CST 5:20 PM CST
Nautical Twilight 6:16 AM CST 5:53 PM CST
Astronomical Twilight 5:43 AM CST 6:26 PM CST
Moon 7:33 PM CST (1/7) 8:33 AM CST (1/7)
Length of Visible Light 10h 29m
Length of Day
9h 29m
Waning Gibbous, 94% of the Moon is Illuminated
Jan 7
Waning Gibbous
Jan 13
Last Quarter
Jan 20
New
Jan 26
First Quarter
Feb 3
Full

Hourly Weather History & Observations

Time (CST) Temp. Windchill Dew Point Humidity Pressure Visibility Wind Dir Wind Speed Gust Speed Precip Events Conditions
12:52 AM 16.0 °F -0.4 °F 7.0 °F 68% 30.48 in 8.0 mi NW 18.4 mph - 0.00 in Snow Light Snow
1:09 AM 15.1 °F -2.0 °F 5.0 °F 64% 30.45 in 8.0 mi NW 19.6 mph 31.1 mph 0.00 in Snow Light Snow
1:19 AM 15.1 °F -4.4 °F 5.0 °F 64% 30.46 in 9.0 mi NW 26.5 mph 32.2 mph 0.00 in   Scattered Clouds
1:52 AM 14.0 °F -4.3 °F 3.9 °F 64% 30.53 in 9.0 mi NW 21.9 mph 32.2 mph 0.00 in   Mostly Cloudy
2:52 AM 12.9 °F -6.5 °F 3.0 °F 65% 30.56 in 6.0 mi NW 24.2 mph 33.4 mph 0.00 in Snow Light Snow
3:31 AM 10.4 °F -8.6 °F 3.2 °F 73% 30.55 in 2.0 mi NNW 20.7 mph 26.5 mph N/A Snow Light Snow
3:38 AM 10.4 °F -9.1 °F 3.2 °F 73% 30.55 in 1.5 mi NNW 21.9 mph 28.8 mph N/A Snow Light Snow
3:46 AM 10.4 °F -5.4 °F 3.2 °F 73% 30.56 in 3.0 mi NNW 13.8 mph 26.5 mph 0.00 in Snow Light Snow
3:52 AM 10.0 °F -7.1 °F 3.0 °F 73% 30.60 in 5.0 mi NW 16.1 mph 23.0 mph 0.00 in Snow Light Snow
4:01 AM 10.0 °F -10.0 °F -0.9 °F 61% 30.56 in 6.0 mi NNW 23.0 mph 33.4 mph 0.00 in Snow Blowing Snow
4:52 AM 8.1 °F -10.2 °F -0.9 °F 67% 30.63 in 8.0 mi NW 17.3 mph 26.5 mph 0.00 in   Scattered Clouds
5:09 AM 8.1 °F -9.0 °F -2.0 °F 64% 30.61 in 8.0 mi NNW 15.0 mph - N/A   Mostly Cloudy
5:52 AM 7.0 °F -12.6 °F -2.9 °F 64% 30.68 in 10.0 mi NW 19.6 mph 27.6 mph N/A   Mostly Cloudy
6:52 AM 5.0 °F -16.7 °F -6.0 °F 61% 30.72 in 10.0 mi NW 23.0 mph 32.2 mph N/A   Mostly Cloudy
7:08 AM 3.9 °F -16.6 °F -6.0 °F 64% 30.69 in 10.0 mi NNW 19.6 mph 26.5 mph N/A   Scattered Clouds
7:52 AM 3.9 °F -16.6 °F -7.1 °F 60% 30.76 in 10.0 mi NW 19.6 mph 31.1 mph N/A   Clear
8:33 AM 3.9 °F -16.6 °F -6.0 °F 64% 30.76 in 10.0 mi NW 19.6 mph 28.8 mph N/A   Mostly Cloudy
8:52 AM 3.9 °F -16.1 °F -6.0 °F 64% 30.81 in 10.0 mi NW 18.4 mph 27.6 mph N/A   Overcast
9:52 AM 3.9 °F -18.1 °F -8.0 °F 58% 30.84 in 10.0 mi NNW 23.0 mph 33.4 mph N/A   Mostly Cloudy
10:52 AM 5.0 °F -14.2 °F -7.1 °F 58% 30.87 in 10.0 mi NW 17.3 mph 27.6 mph N/A   Mostly Cloudy
11:52 AM 5.0 °F -14.7 °F -7.1 °F 58% 30.87 in 10.0 mi NW 18.4 mph - N/A   Mostly Cloudy
12:00 PM 5.0 °F -14.2 °F -7.1 °F 58% 30.83 in 10.0 mi NNW 17.3 mph 27.6 mph N/A   Scattered Clouds
12:52 PM 5.0 °F -15.7 °F -7.1 °F 58% 30.87 in 10.0 mi NW 20.7 mph 28.8 mph N/A   Scattered Clouds
1:52 PM 5.0 °F -15.2 °F -7.1 °F 58% 30.89 in 10.0 mi WNW 19.6 mph - N/A   Scattered Clouds
2:52 PM 5.0 °F -14.7 °F -9.0 °F 52% 30.92 in 10.0 mi WNW 18.4 mph 29.9 mph N/A   Clear
3:52 PM 3.9 °F -13.0 °F -8.0 °F 58% 30.93 in 10.0 mi WNW 12.7 mph - N/A   Clear
4:52 PM 1.9 °F -16.9 °F -11.0 °F 55% 30.94 in 10.0 mi NW 15.0 mph - N/A   Clear
5:52 PM 1.0 °F -15.8 °F -11.0 °F 57% 30.95 in 10.0 mi NW 11.5 mph - N/A   Clear
6:52 PM -0.9 °F -14.1 °F -9.9 °F 66% 30.94 in 10.0 mi WNW 6.9 mph - N/A   Clear
7:52 PM -0.9 °F -15.3 °F -9.9 °F 66% 30.94 in 10.0 mi NW 8.1 mph - N/A   Clear
8:52 PM -2.0 °F -15.4 °F -11.0 °F 66% 30.93 in 10.0 mi WNW 6.9 mph - N/A   Clear
9:52 PM -2.9 °F -15.0 °F -11.0 °F 68% 30.89 in 10.0 mi West 5.8 mph - N/A   Clear
10:52 PM -2.9 °F -16.5 °F -11.0 °F 68% 30.87 in 10.0 mi West 6.9 mph - N/A   Clear
11:52 PM -2.0 °F -18.7 °F -11.0 °F 66% 30.85 in 10.0 mi West 10.4 mph - N/A   Clear